Year,Month,Day,Hour,Minute,Value (Times are PST for temperature in C)
2021,06,26,00,00,30.40
2021,06,26,00,01,30.40
2021,06,26,00,02,30.30
2021,06,26,00,03,30.30
2021,06,26,00,04,30.30
2021,06,26,00,05,30.30
2021,06,26,00,06,30.20
2021,06,26,00,07,30.20
2021,06,26,00,08,30.20
2021,06,26,00,09,30.20
2021,06,26,00,10,30.20
2021,06,26,00,11,30.10
2021,06,26,00,12,30.10
2021,06,26,00,13,30.10
2021,06,26,00,14,30.10
2021,06,26,00,15,30.00
2021,06,26,00,16,30.00
2021,06,26,00,17,30.00
2021,06,26,00,18,29.90
2021,06,26,00,19,29.90
2021,06,26,00,20,29.90
2021,06,26,00,21,29.90
2021,06,26,00,22,29.80
2021,06,26,00,23,29.80
2021,06,26,00,24,29.80
2021,06,26,00,25,29.70
2021,06,26,00,26,29.70
2021,06,26,00,27,29.70
2021,06,26,00,28,29.70
2021,06,26,00,29,29.60
2021,06,26,00,30,29.60
2021,06,26,00,31,29.60
2021,06,26,00,32,29.60
2021,06,26,00,33,29.60
2021,06,26,00,34,29.50
2021,06,26,00,35,29.50
2021,06,26,00,36,29.40
2021,06,26,00,37,29.40
2021,06,26,00,38,29.40
2021,06,26,00,39,29.30
2021,06,26,00,40,29.30
2021,06,26,00,41,29.20
2021,06,26,00,42,29.20
2021,06,26,00,43,29.10
2021,06,26,00,44,29.10
2021,06,26,00,45,29.00
2021,06,26,00,46,29.00
2021,06,26,00,47,28.90
2021,06,26,00,48,28.90
2021,06,26,00,49,28.90
2021,06,26,00,50,28.80
2021,06,26,00,51,28.80
2021,06,26,00,52,28.70
2021,06,26,00,53,28.70
2021,06,26,00,54,28.70
2021,06,26,00,55,28.60
2021,06,26,00,56,28.60
2021,06,26,00,57,28.60
2021,06,26,00,58,28.60
2021,06,26,00,59,28.50
2021,06,26,01,00,28.50
2021,06,26,01,01,28.50
2021,06,26,01,02,28.40
2021,06,26,01,03,28.30
2021,06,26,01,04,28.30
2021,06,26,01,05,28.20
2021,06,26,01,06,28.10
2021,06,26,01,07,28.10
2021,06,26,01,08,28.00
2021,06,26,01,09,27.90
2021,06,26,01,10,27.80
2021,06,26,01,11,27.80
2021,06,26,01,12,27.70
2021,06,26,01,13,27.60
2021,06,26,01,14,27.60
2021,06,26,01,15,27.50
2021,06,26,01,16,27.50
2021,06,26,01,17,27.50
2021,06,26,01,18,27.50
2021,06,26,01,19,27.50
2021,06,26,01,20,27.50
2021,06,26,01,21,27.50
2021,06,26,01,22,27.60
2021,06,26,01,23,27.60
2021,06,26,01,24,27.70
2021,06,26,01,25,27.70
2021,06,26,01,26,27.60
2021,06,26,01,27,27.60
2021,06,26,01,28,27.60
2021,06,26,01,29,27.60
2021,06,26,01,30,27.60
2021,06,26,01,31,27.60
2021,06,26,01,32,27.70
2021,06,26,01,33,27.70
2021,06,26,01,34,27.80
2021,06,26,01,35,27.80
2021,06,26,01,36,27.90
2021,06,26,01,37,27.90
2021,06,26,01,38,27.90
2021,06,26,01,39,27.90
2021,06,26,01,40,28.00
2021,06,26,01,41,28.00
2021,06,26,01,42,28.00
2021,06,26,01,43,28.00
2021,06,26,01,44,28.00
2021,06,26,01,45,28.00
2021,06,26,01,46,28.10
2021,06,26,01,47,28.10
2021,06,26,01,48,28.10
2021,06,26,01,49,28.10
2021,06,26,01,50,28.10
2021,06,26,01,51,28.10
2021,06,26,01,52,28.10
2021,06,26,01,53,28.10
2021,06,26,01,54,28.10
2021,06,26,01,55,28.00
2021,06,26,01,56,27.90
2021,06,26,01,57,27.90
2021,06,26,01,58,27.90
2021,06,26,01,59,27.90
2021,06,26,02,00,27.80
2021,06,26,02,01,27.80
2021,06,26,02,02,27.80
2021,06,26,02,03,27.70
2021,06,26,02,04,27.60
2021,06,26,02,05,27.60
2021,06,26,02,06,27.50
2021,06,26,02,07,27.40
2021,06,26,02,08,27.30
2021,06,26,02,09,27.30
2021,06,26,02,10,27.20
2021,06,26,02,11,27.20
2021,06,26,02,12,27.10
2021,06,26,02,13,27.00
2021,06,26,02,14,26.90
2021,06,26,02,15,26.90
2021,06,26,02,16,26.80
2021,06,26,02,17,26.80
2021,06,26,02,18,26.70
2021,06,26,02,19,26.70
2021,06,26,02,20,26.70
2021,06,26,02,21,26.60
2021,06,26,02,22,26.60
2021,06,26,02,23,26.60
2021,06,26,02,24,26.60
2021,06,26,02,25,26.50
2021,06,26,02,26,26.50
2021,06,26,02,27,26.40
2021,06,26,02,28,26.40
2021,06,26,02,29,26.40
2021,06,26,02,30,26.30
2021,06,26,02,31,26.30
2021,06,26,02,32,26.30
2021,06,26,02,33,26.20
2021,06,26,02,34,26.20
2021,06,26,02,35,26.20
2021,06,26,02,36,26.10
2021,06,26,02,37,26.00
2021,06,26,02,38,26.00
2021,06,26,02,39,25.90
2021,06,26,02,40,25.90
2021,06,26,02,41,25.80
2021,06,26,02,42,25.80
2021,06,26,02,43,25.80
2021,06,26,02,44,25.70
2021,06,26,02,45,25.70
2021,06,26,02,46,25.70
2021,06,26,02,47,25.60
2021,06,26,02,48,25.60
2021,06,26,02,49,25.50
2021,06,26,02,50,25.50
2021,06,26,02,51,25.40
2021,06,26,02,52,25.40
2021,06,26,02,53,25.30
2021,06,26,02,54,25.30
2021,06,26,02,55,25.20
2021,06,26,02,56,25.20
2021,06,26,02,57,25.10
2021,06,26,02,58,25.10
2021,06,26,02,59,25.10
2021,06,26,03,00,25.00
2021,06,26,03,01,25.00
2021,06,26,03,02,24.90
2021,06,26,03,03,24.90
2021,06,26,03,04,24.90
2021,06,26,03,05,24.90
2021,06,26,03,06,24.80
2021,06,26,03,07,24.80
2021,06,26,03,08,24.70
2021,06,26,03,09,24.70
2021,06,26,03,10,24.60
2021,06,26,03,11,24.60
2021,06,26,03,12,24.50
2021,06,26,03,13,24.50
2021,06,26,03,14,24.40
2021,06,26,03,15,24.40
2021,06,26,03,16,24.40
2021,06,26,03,17,24.30
2021,06,26,03,18,24.30
2021,06,26,03,19,24.30
2021,06,26,03,20,24.20
2021,06,26,03,21,24.20
2021,06,26,03,22,24.10
2021,06,26,03,23,24.10
2021,06,26,03,24,24.00
2021,06,26,03,25,24.00
2021,06,26,03,26,23.90
2021,06,26,03,27,23.90
2021,06,26,03,28,23.80
2021,06,26,03,29,23.80
2021,06,26,03,30,23.80
2021,06,26,03,31,23.80
2021,06,26,03,32,23.80
2021,06,26,03,33,23.70
2021,06,26,03,34,23.70
2021,06,26,03,35,23.70
2021,06,26,03,36,23.70
2021,06,26,03,37,23.70
2021,06,26,03,38,23.60
2021,06,26,03,39,23.60
2021,06,26,03,40,23.60
2021,06,26,03,41,23.50
2021,06,26,03,42,23.50
2021,06,26,03,43,23.50
2021,06,26,03,44,23.40
2021,06,26,03,45,23.40
2021,06,26,03,46,23.40
2021,06,26,03,47,23.40
2021,06,26,03,48,23.40
2021,06,26,03,49,23.30
2021,06,26,03,50,23.30
2021,06,26,03,51,23.30
2021,06,26,03,52,23.20
2021,06,26,03,53,23.20
2021,06,26,03,54,23.10
2021,06,26,03,55,23.10
2021,06,26,03,56,23.00
2021,06,26,03,57,22.90
2021,06,26,03,58,22.90
2021,06,26,03,59,22.80
2021,06,26,04,00,22.80
2021,06,26,04,01,22.70
2021,06,26,04,02,22.70
2021,06,26,04,03,22.70
2021,06,26,04,04,22.60
2021,06,26,04,05,22.60
2021,06,26,04,06,22.60
2021,06,26,04,07,22.60
2021,06,26,04,08,22.60
2021,06,26,04,09,22.60
2021,06,26,04,10,22.60
2021,06,26,04,11,22.60
2021,06,26,04,12,22.60
2021,06,26,04,13,22.60
2021,06,26,04,14,22.60
2021,06,26,04,15,22.50
2021,06,26,04,16,22.50
2021,06,26,04,17,22.50
2021,06,26,04,18,22.40
2021,06,26,04,19,22.40
2021,06,26,04,20,22.40
2021,06,26,04,21,22.30
2021,06,26,04,22,22.30
2021,06,26,04,23,22.30
2021,06,26,04,24,22.30
2021,06,26,04,25,22.30
2021,06,26,04,26,22.30
2021,06,26,04,27,22.30
2021,06,26,04,28,22.30
2021,06,26,04,29,22.30
2021,06,26,04,30,22.30
2021,06,26,04,31,22.30
2021,06,26,04,32,22.30
2021,06,26,04,33,22.30
2021,06,26,04,34,22.30
2021,06,26,04,35,22.30
2021,06,26,04,36,22.30
2021,06,26,04,37,22.30
2021,06,26,04,38,22.20
2021,06,26,04,39,22.20
2021,06,26,04,40,22.20
2021,06,26,04,41,22.20
2021,06,26,04,42,22.20
2021,06,26,04,43,22.20
2021,06,26,04,44,22.10
2021,06,26,04,45,22.10
2021,06,26,04,46,22.10
2021,06,26,04,47,22.10
2021,06,26,04,48,22.00
2021,06,26,04,49,22.00
2021,06,26,04,50,22.00
2021,06,26,04,51,21.90
2021,06,26,04,52,21.90
2021,06,26,04,53,21.90
2021,06,26,04,54,21.90
2021,06,26,04,55,21.90
2021,06,26,04,56,21.90
2021,06,26,04,57,21.90
2021,06,26,04,58,21.90
2021,06,26,04,59,21.80
2021,06,26,05,00,21.80
2021,06,26,05,01,21.80
2021,06,26,05,02,21.80
2021,06,26,05,03,21.80
2021,06,26,05,04,21.70
2021,06,26,05,05,21.70
2021,06,26,05,06,21.70
2021,06,26,05,07,21.60
2021,06,26,05,08,21.60
2021,06,26,05,09,21.60
2021,06,26,05,10,21.60
2021,06,26,05,11,21.60
2021,06,26,05,12,21.50
2021,06,26,05,13,21.50
2021,06,26,05,14,21.50
2021,06,26,05,15,21.40
2021,06,26,05,16,21.40
2021,06,26,05,17,21.40
2021,06,26,05,18,21.40
2021,06,26,05,19,21.40
2021,06,26,05,20,21.40
2021,06,26,05,21,21.40
2021,06,26,05,22,21.30
2021,06,26,05,23,21.30
2021,06,26,05,24,21.30
2021,06,26,05,25,21.30
2021,06,26,05,26,21.30
2021,06,26,05,27,21.30
2021,06,26,05,28,21.40
2021,06,26,05,29,21.40
2021,06,26,05,30,21.40
2021,06,26,05,31,21.40
2021,06,26,05,32,21.40
2021,06,26,05,33,21.40
2021,06,26,05,34,21.40
2021,06,26,05,35,21.40
2021,06,26,05,36,21.40
2021,06,26,05,37,21.40
2021,06,26,05,38,21.30
2021,06,26,05,39,21.30
2021,06,26,05,40,21.30
2021,06,26,05,41,21.30
2021,06,26,05,42,21.40
2021,06,26,05,43,21.40
2021,06,26,05,44,21.40
2021,06,26,05,45,21.40
2021,06,26,05,46,21.50
2021,06,26,05,47,21.50
2021,06,26,05,48,21.60
2021,06,26,05,49,21.60
2021,06,26,05,50,21.70
2021,06,26,05,51,21.70
2021,06,26,05,52,21.70
2021,06,26,05,53,21.70
2021,06,26,05,54,21.80
2021,06,26,05,55,21.80
2021,06,26,05,56,21.80
2021,06,26,05,57,21.80
2021,06,26,05,58,21.80
2021,06,26,05,59,21.80
2021,06,26,06,00,21.80
2021,06,26,06,01,21.80
2021,06,26,06,02,21.80
2021,06,26,06,03,21.80
2021,06,26,06,04,21.80
2021,06,26,06,05,21.80
2021,06,26,06,06,21.90
2021,06,26,06,07,21.90
2021,06,26,06,08,21.90
2021,06,26,06,09,21.90
2021,06,26,06,10,21.90
2021,06,26,06,11,22.00
2021,06,26,06,12,22.00
2021,06,26,06,13,22.00
2021,06,26,06,14,22.10
2021,06,26,06,15,22.10
2021,06,26,06,16,22.10
2021,06,26,06,17,22.10
2021,06,26,06,18,22.10
2021,06,26,06,19,22.20
2021,06,26,06,20,22.20
2021,06,26,06,21,22.20
2021,06,26,06,22,22.30
2021,06,26,06,23,22.30
2021,06,26,06,24,22.30
2021,06,26,06,25,22.40
2021,06,26,06,26,22.40
2021,06,26,06,27,22.50
2021,06,26,06,28,22.50
2021,06,26,06,29,22.60
2021,06,26,06,30,22.60
2021,06,26,06,31,22.60
2021,06,26,06,32,22.70
2021,06,26,06,33,22.70
2021,06,26,06,34,22.80
2021,06,26,06,35,22.80
2021,06,26,06,36,22.80
2021,06,26,06,37,22.90
2021,06,26,06,38,23.00
2021,06,26,06,39,23.00
2021,06,26,06,40,23.10
2021,06,26,06,41,23.20
2021,06,26,06,42,23.30
2021,06,26,06,43,23.40
2021,06,26,06,44,23.50
2021,06,26,06,45,23.70
2021,06,26,06,46,23.80
2021,06,26,06,47,23.80
2021,06,26,06,48,23.80
2021,06,26,06,49,23.70
2021,06,26,06,50,23.70
2021,06,26,06,51,23.70
2021,06,26,06,52,23.60
2021,06,26,06,53,23.60
2021,06,26,06,54,23.50
2021,06,26,06,55,23.40
2021,06,26,06,56,23.40
2021,06,26,06,57,23.30
2021,06,26,06,58,23.30
2021,06,26,06,59,23.30
2021,06,26,07,00,23.30
2021,06,26,07,01,23.30
2021,06,26,07,02,23.20
2021,06,26,07,03,23.20
2021,06,26,07,04,23.20
2021,06,26,07,05,23.20
2021,06,26,07,06,23.10
2021,06,26,07,07,23.10
2021,06,26,07,08,23.10
2021,06,26,07,09,23.10
2021,06,26,07,10,23.10
2021,06,26,07,11,23.10
2021,06,26,07,12,23.20
2021,06,26,07,13,23.20
2021,06,26,07,14,23.20
2021,06,26,07,15,23.20
2021,06,26,07,16,23.20
2021,06,26,07,17,23.20
2021,06,26,07,18,23.30
2021,06,26,07,19,23.30
2021,06,26,07,20,23.30
2021,06,26,07,21,23.30
2021,06,26,07,22,23.30
2021,06,26,07,23,23.40
2021,06,26,07,24,23.50
2021,06,26,07,25,23.60
2021,06,26,07,26,23.70
2021,06,26,07,27,23.80
2021,06,26,07,28,23.80
2021,06,26,07,29,23.80
2021,06,26,07,30,23.80
2021,06,26,07,31,23.80
2021,06,26,07,32,23.90
2021,06,26,07,33,23.90
2021,06,26,07,34,24.00
2021,06,26,07,35,24.00
2021,06,26,07,36,24.10
2021,06,26,07,37,24.10
2021,06,26,07,38,24.10
2021,06,26,07,39,24.20
2021,06,26,07,40,24.20
2021,06,26,07,41,24.20
2021,06,26,07,42,24.30
2021,06,26,07,43,24.30
2021,06,26,07,44,24.30
2021,06,26,07,45,24.40
2021,06,26,07,46,24.40
2021,06,26,07,47,24.50
2021,06,26,07,48,24.50
2021,06,26,07,49,24.60
2021,06,26,07,50,24.60
2021,06,26,07,51,24.70
2021,06,26,07,52,24.70
2021,06,26,07,53,24.70
2021,06,26,07,54,24.80
2021,06,26,07,55,24.80
2021,06,26,07,56,24.90
2021,06,26,07,57,25.00
2021,06,26,07,58,25.10
2021,06,26,07,59,25.20
2021,06,26,08,00,25.30
2021,06,26,08,01,25.30
2021,06,26,08,02,25.40
2021,06,26,08,03,25.50
2021,06,26,08,04,25.50
2021,06,26,08,05,25.60
2021,06,26,08,06,25.60
2021,06,26,08,07,25.60
2021,06,26,08,08,25.60
2021,06,26,08,09,25.60
2021,06,26,08,10,25.60
2021,06,26,08,11,25.70
2021,06,26,08,12,25.70
2021,06,26,08,13,25.70
2021,06,26,08,14,25.70
2021,06,26,08,15,25.70
2021,06,26,08,16,25.70
2021,06,26,08,17,25.70
2021,06,26,08,18,25.60
2021,06,26,08,19,25.60
2021,06,26,08,20,25.50
2021,06,26,08,21,25.40
2021,06,26,08,22,25.40
2021,06,26,08,23,25.40
2021,06,26,08,24,25.40
2021,06,26,08,25,25.40
2021,06,26,08,26,25.50
2021,06,26,08,27,25.50
2021,06,26,08,28,25.50
2021,06,26,08,29,25.60
2021,06,26,08,30,25.60
2021,06,26,08,31,25.60
2021,06,26,08,32,25.70
2021,06,26,08,33,25.70
2021,06,26,08,34,25.70
2021,06,26,08,35,25.70
2021,06,26,08,36,25.70
2021,06,26,08,37,25.70
2021,06,26,08,38,25.80
2021,06,26,08,39,25.90
2021,06,26,08,40,25.90
2021,06,26,08,41,26.00
2021,06,26,08,42,26.00
2021,06,26,08,43,26.00
2021,06,26,08,44,26.10
2021,06,26,08,45,26.10
2021,06,26,08,46,26.10
2021,06,26,08,47,26.10
2021,06,26,08,48,26.10
2021,06,26,08,49,26.10
2021,06,26,08,50,26.20
2021,06,26,08,51,26.20
2021,06,26,08,52,26.20
2021,06,26,08,53,26.10
2021,06,26,08,54,26.00
2021,06,26,08,55,25.90
2021,06,26,08,56,25.90
2021,06,26,08,57,25.90
2021,06,26,08,58,26.00
2021,06,26,08,59,26.10
2021,06,26,09,00,26.20
2021,06,26,09,01,26.30
2021,06,26,09,02,26.30
2021,06,26,09,03,26.40
2021,06,26,09,04,26.50
2021,06,26,09,05,26.60
2021,06,26,09,06,26.60
2021,06,26,09,07,26.60
2021,06,26,09,08,26.60
2021,06,26,09,09,26.60
2021,06,26,09,10,26.60
2021,06,26,09,11,26.70
2021,06,26,09,12,26.70
2021,06,26,09,13,26.80
2021,06,26,09,14,26.80
2021,06,26,09,15,26.70
2021,06,26,09,16,26.70
2021,06,26,09,17,26.60
2021,06,26,09,18,26.50
2021,06,26,09,19,26.50
2021,06,26,09,20,26.40
2021,06,26,09,21,26.40
2021,06,26,09,22,26.50
2021,06,26,09,23,26.50
2021,06,26,09,24,26.60
2021,06,26,09,25,26.70
2021,06,26,09,26,26.80
2021,06,26,09,27,26.90
2021,06,26,09,28,27.00
2021,06,26,09,29,27.00
2021,06,26,09,30,27.10
2021,06,26,09,31,27.20
2021,06,26,09,32,27.40
2021,06,26,09,33,27.40
2021,06,26,09,34,27.50
2021,06,26,09,35,27.60
2021,06,26,09,36,27.50
2021,06,26,09,37,27.40
2021,06,26,09,38,27.40
2021,06,26,09,39,27.30
2021,06,26,09,40,27.20
2021,06,26,09,41,27.00
2021,06,26,09,42,26.80
2021,06,26,09,43,26.70
2021,06,26,09,44,26.50
2021,06,26,09,45,26.40
2021,06,26,09,46,26.30
2021,06,26,09,47,26.30
2021,06,26,09,48,26.20
2021,06,26,09,49,26.20
2021,06,26,09,50,26.20
2021,06,26,09,51,26.30
2021,06,26,09,52,26.40
2021,06,26,09,53,26.50
2021,06,26,09,54,26.60
2021,06,26,09,55,26.70
2021,06,26,09,56,26.70
2021,06,26,09,57,26.70
2021,06,26,09,58,26.70
2021,06,26,09,59,26.60
2021,06,26,10,00,26.60
2021,06,26,10,01,26.50
2021,06,26,10,02,26.40
2021,06,26,10,03,26.30
2021,06,26,10,04,26.30
2021,06,26,10,05,26.30
2021,06,26,10,06,26.30
2021,06,26,10,07,26.30
2021,06,26,10,08,26.40
2021,06,26,10,09,26.50
2021,06,26,10,10,26.70
2021,06,26,10,11,26.90
2021,06,26,10,12,27.00
2021,06,26,10,13,27.10
2021,06,26,10,14,27.20
2021,06,26,10,15,27.20
2021,06,26,10,16,27.20
2021,06,26,10,17,27.10
2021,06,26,10,18,27.10
2021,06,26,10,19,27.00
2021,06,26,10,20,27.00
2021,06,26,10,21,27.00
2021,06,26,10,22,27.00
2021,06,26,10,23,27.00
2021,06,26,10,24,27.10
2021,06,26,10,25,27.10
2021,06,26,10,26,27.10
2021,06,26,10,27,27.00
2021,06,26,10,28,26.90
2021,06,26,10,29,26.80
2021,06,26,10,30,26.80
2021,06,26,10,31,26.80
2021,06,26,10,32,26.70
2021,06,26,10,33,26.60
2021,06,26,10,34,26.60
2021,06,26,10,35,26.60
2021,06,26,10,36,26.60
2021,06,26,10,37,26.60
2021,06,26,10,38,26.60
2021,06,26,10,39,26.50
2021,06,26,10,40,26.40
2021,06,26,10,41,26.30
2021,06,26,10,42,26.30
2021,06,26,10,43,26.40
2021,06,26,10,44,26.40
2021,06,26,10,45,26.50
2021,06,26,10,46,26.60
2021,06,26,10,47,26.80
2021,06,26,10,48,26.80
2021,06,26,10,49,26.90
2021,06,26,10,50,26.80
2021,06,26,10,51,26.70
2021,06,26,10,52,26.70
2021,06,26,10,53,26.80
2021,06,26,10,54,26.80
2021,06,26,10,55,26.80
2021,06,26,10,56,26.70
2021,06,26,10,57,26.70
2021,06,26,10,58,26.80
2021,06,26,10,59,26.90
2021,06,26,11,00,27.00
2021,06,26,11,01,27.00
2021,06,26,11,02,27.00
2021,06,26,11,03,27.10
2021,06,26,11,04,27.10
2021,06,26,11,05,27.20
2021,06,26,11,06,27.20
2021,06,26,11,07,27.20
2021,06,26,11,08,27.20
2021,06,26,11,09,27.20
2021,06,26,11,10,27.20
2021,06,26,11,11,27.20
2021,06,26,11,12,27.20
2021,06,26,11,13,27.20
2021,06,26,11,14,27.10
2021,06,26,11,15,27.10
2021,06,26,11,16,27.10
2021,06,26,11,17,27.00
2021,06,26,11,18,27.00
2021,06,26,11,19,27.00
2021,06,26,11,20,26.90
2021,06,26,11,21,26.90
2021,06,26,11,22,26.90
2021,06,26,11,23,26.90
2021,06,26,11,24,26.90
2021,06,26,11,25,26.80
2021,06,26,11,26,26.80
2021,06,26,11,27,26.80
2021,06,26,11,28,26.80
2021,06,26,11,29,26.80
2021,06,26,11,30,26.90
2021,06,26,11,31,27.00
2021,06,26,11,32,27.10
2021,06,26,11,33,27.20
2021,06,26,11,34,27.30
2021,06,26,11,35,27.30
2021,06,26,11,36,27.40
2021,06,26,11,37,27.50
2021,06,26,11,38,27.60
2021,06,26,11,39,27.70
2021,06,26,11,40,27.70
2021,06,26,11,41,27.70
2021,06,26,11,42,27.80
2021,06,26,11,43,27.80
2021,06,26,11,44,27.90
2021,06,26,11,45,27.90
2021,06,26,11,46,27.90
2021,06,26,11,47,27.80
2021,06,26,11,48,27.70
2021,06,26,11,49,27.60
2021,06,26,11,50,27.40
2021,06,26,11,51,27.30
2021,06,26,11,52,27.30
2021,06,26,11,53,27.30
2021,06,26,11,54,27.30
2021,06,26,11,55,27.40
2021,06,26,11,56,27.30
2021,06,26,11,57,27.30
2021,06,26,11,58,27.30
2021,06,26,11,59,27.30
2021,06,26,12,00,27.30
2021,06,26,12,01,27.30
2021,06,26,12,02,27.30
2021,06,26,12,03,27.30
2021,06,26,12,04,27.30
2021,06,26,12,05,27.20
2021,06,26,12,06,27.20
2021,06,26,12,07,27.10
2021,06,26,12,08,27.20
2021,06,26,12,09,27.10
2021,06,26,12,10,27.10
2021,06,26,12,11,27.10
2021,06,26,12,12,27.10
2021,06,26,12,13,27.10
2021,06,26,12,14,27.10
2021,06,26,12,15,27.10
2021,06,26,12,16,27.10
2021,06,26,12,17,27.10
2021,06,26,12,18,27.10
2021,06,26,12,19,27.10
2021,06,26,12,20,27.20
2021,06,26,12,21,27.30
2021,06,26,12,22,27.40
2021,06,26,12,23,27.50
2021,06,26,12,24,27.60
2021,06,26,12,25,27.70
2021,06,26,12,26,27.70
2021,06,26,12,27,27.60
2021,06,26,12,28,27.60
2021,06,26,12,29,27.60
2021,06,26,12,30,27.60
2021,06,26,12,31,27.70
2021,06,26,12,32,27.70
2021,06,26,12,33,27.80
2021,06,26,12,34,27.80
2021,06,26,12,35,27.80
2021,06,26,12,36,27.90
2021,06,26,12,37,27.90
2021,06,26,12,38,27.90
2021,06,26,12,39,27.90
2021,06,26,12,40,28.00
2021,06,26,12,41,28.00
2021,06,26,12,42,28.10
2021,06,26,12,43,28.20
2021,06,26,12,44,28.30
2021,06,26,12,45,28.40
2021,06,26,12,46,28.50
2021,06,26,12,47,28.50
2021,06,26,12,48,28.50
2021,06,26,12,49,28.50
2021,06,26,12,50,28.50
2021,06,26,12,51,28.60
2021,06,26,12,52,28.60
2021,06,26,12,53,28.60
2021,06,26,12,54,28.70
2021,06,26,12,55,28.70
2021,06,26,12,56,28.80
2021,06,26,12,57,28.80
2021,06,26,12,58,28.80
2021,06,26,12,59,28.90
2021,06,26,13,00,29.10
2021,06,26,13,01,29.20
2021,06,26,13,02,29.30
2021,06,26,13,03,29.30
2021,06,26,13,04,29.30
2021,06,26,13,05,29.30
2021,06,26,13,06,29.40
2021,06,26,13,07,29.40
2021,06,26,13,08,29.50
2021,06,26,13,09,29.70
2021,06,26,13,10,29.70
2021,06,26,13,11,29.80
2021,06,26,13,12,29.90
2021,06,26,13,13,29.90
2021,06,26,13,14,30.00
2021,06,26,13,15,30.10
2021,06,26,13,16,30.20
2021,06,26,13,17,30.30
2021,06,26,13,18,30.40
2021,06,26,13,19,30.40
2021,06,26,13,20,30.40
2021,06,26,13,21,30.50
2021,06,26,13,22,30.50
2021,06,26,13,23,30.50
2021,06,26,13,24,30.50
2021,06,26,13,25,30.50
2021,06,26,13,26,30.50
2021,06,26,13,27,30.60
2021,06,26,13,28,30.60
2021,06,26,13,29,30.60
2021,06,26,13,30,30.60
2021,06,26,13,31,30.60
2021,06,26,13,32,30.50
2021,06,26,13,33,30.40
2021,06,26,13,34,30.30
2021,06,26,13,35,30.30
2021,06,26,13,36,30.30
2021,06,26,13,37,30.20
2021,06,26,13,38,30.20
2021,06,26,13,39,30.30
2021,06,26,13,40,30.30
2021,06,26,13,41,30.40
2021,06,26,13,42,30.60
2021,06,26,13,43,30.70
2021,06,26,13,44,30.90
2021,06,26,13,45,30.90
2021,06,26,13,46,30.90
2021,06,26,13,47,30.90
2021,06,26,13,48,30.90
2021,06,26,13,49,30.90
2021,06,26,13,50,31.00
2021,06,26,13,51,31.00
2021,06,26,13,52,31.00
2021,06,26,13,53,31.00
2021,06,26,13,54,31.10
2021,06,26,13,55,31.10
2021,06,26,13,56,31.10
2021,06,26,13,57,31.20
2021,06,26,13,58,31.30
2021,06,26,13,59,31.40
2021,06,26,14,00,31.50
2021,06,26,14,01,31.60
2021,06,26,14,02,31.70
2021,06,26,14,03,31.80
2021,06,26,14,04,31.80
2021,06,26,14,05,31.90
2021,06,26,14,06,31.90
2021,06,26,14,07,31.90
2021,06,26,14,08,32.00
2021,06,26,14,09,32.10
2021,06,26,14,10,32.10
2021,06,26,14,11,32.10
2021,06,26,14,12,32.10
2021,06,26,14,13,32.20
2021,06,26,14,14,32.20
2021,06,26,14,15,32.20
2021,06,26,14,16,32.20
2021,06,26,14,17,32.20
2021,06,26,14,18,32.10
2021,06,26,14,19,32.20
2021,06,26,14,20,32.20
2021,06,26,14,21,32.20
2021,06,26,14,22,32.10
2021,06,26,14,23,32.10
2021,06,26,14,24,32.00
2021,06,26,14,25,32.00
2021,06,26,14,26,32.00
2021,06,26,14,27,32.00
2021,06,26,14,28,31.90
2021,06,26,14,29,32.00
2021,06,26,14,30,32.10
2021,06,26,14,31,32.10
2021,06,26,14,32,32.20
2021,06,26,14,33,32.30
2021,06,26,14,34,32.50
2021,06,26,14,35,32.60
2021,06,26,14,36,32.60
2021,06,26,14,37,32.60
2021,06,26,14,38,32.60
2021,06,26,14,39,32.60
2021,06,26,14,40,32.60
2021,06,26,14,41,32.70
2021,06,26,14,42,32.60
2021,06,26,14,43,32.70
2021,06,26,14,44,32.90
2021,06,26,14,45,33.00
2021,06,26,14,46,33.20
2021,06,26,14,47,33.40
2021,06,26,14,48,33.50
2021,06,26,14,49,33.50
2021,06,26,14,50,33.60
2021,06,26,14,51,33.60
2021,06,26,14,52,33.60
2021,06,26,14,53,33.70
2021,06,26,14,54,33.80
2021,06,26,14,55,33.80
2021,06,26,14,56,33.80
2021,06,26,14,57,33.80
2021,06,26,14,58,33.80
2021,06,26,14,59,33.80
2021,06,26,15,00,33.80
2021,06,26,15,01,33.90
2021,06,26,15,02,33.90
2021,06,26,15,03,33.90
2021,06,26,15,04,33.90
2021,06,26,15,05,33.80
2021,06,26,15,06,33.80
2021,06,26,15,07,33.80
2021,06,26,15,08,33.80
2021,06,26,15,09,33.80
2021,06,26,15,10,33.70
2021,06,26,15,11,33.60
2021,06,26,15,12,33.60
2021,06,26,15,13,33.50
2021,06,26,15,14,33.50
2021,06,26,15,15,33.40
2021,06,26,15,16,33.40
2021,06,26,15,17,33.40
2021,06,26,15,18,33.40
2021,06,26,15,19,33.40
2021,06,26,15,20,33.50
2021,06,26,15,21,33.50
2021,06,26,15,22,33.50
2021,06,26,15,23,33.50
2021,06,26,15,24,33.40
2021,06,26,15,25,33.40
2021,06,26,15,26,33.40
2021,06,26,15,27,33.40
2021,06,26,15,28,33.40
2021,06,26,15,29,33.40
2021,06,26,15,30,33.40
2021,06,26,15,31,33.40
2021,06,26,15,32,33.30
2021,06,26,15,33,33.30
2021,06,26,15,34,33.40
2021,06,26,15,35,33.40
2021,06,26,15,36,33.40
2021,06,26,15,37,33.40
2021,06,26,15,38,33.50
2021,06,26,15,39,33.60
2021,06,26,15,40,33.50
2021,06,26,15,41,33.40
2021,06,26,15,42,33.40
2021,06,26,15,43,33.50
2021,06,26,15,44,33.60
2021,06,26,15,45,33.70
2021,06,26,15,46,33.80
2021,06,26,15,47,33.80
2021,06,26,15,48,33.70
2021,06,26,15,49,33.60
2021,06,26,15,50,33.60
2021,06,26,15,51,33.60
2021,06,26,15,52,33.60
2021,06,26,15,53,33.60
2021,06,26,15,54,33.60
2021,06,26,15,55,33.60
2021,06,26,15,56,33.60
2021,06,26,15,57,33.60
2021,06,26,15,58,33.60
2021,06,26,15,59,33.50
2021,06,26,16,00,33.50
2021,06,26,16,01,33.50
2021,06,26,16,02,33.50
2021,06,26,16,03,33.60
2021,06,26,16,04,33.60
2021,06,26,16,05,33.70
2021,06,26,16,06,33.70
2021,06,26,16,07,33.80
2021,06,26,16,08,34.00
2021,06,26,16,09,34.00
2021,06,26,16,10,34.00
2021,06,26,16,11,33.90
2021,06,26,16,12,34.00
2021,06,26,16,13,34.10
2021,06,26,16,14,34.20
2021,06,26,16,15,34.30
2021,06,26,16,16,34.30
2021,06,26,16,17,34.30
2021,06,26,16,18,34.30
2021,06,26,16,19,34.30
2021,06,26,16,20,34.20
2021,06,26,16,21,34.20
2021,06,26,16,22,34.20
2021,06,26,16,23,34.20
2021,06,26,16,24,34.10
2021,06,26,16,25,34.00
2021,06,26,16,26,33.90
2021,06,26,16,27,33.90
2021,06,26,16,28,34.00
2021,06,26,16,29,34.00
2021,06,26,16,30,34.00
2021,06,26,16,31,33.90
2021,06,26,16,32,33.80
2021,06,26,16,33,33.80
2021,06,26,16,34,33.80
2021,06,26,16,35,33.80
2021,06,26,16,36,33.80
2021,06,26,16,37,33.90
2021,06,26,16,38,33.90
2021,06,26,16,39,33.90
2021,06,26,16,40,33.90
2021,06,26,16,41,33.90
2021,06,26,16,42,33.80
2021,06,26,16,43,33.80
2021,06,26,16,44,33.70
2021,06,26,16,45,33.70
2021,06,26,16,46,33.80
2021,06,26,16,47,33.80
2021,06,26,16,48,33.90
2021,06,26,16,49,33.90
2021,06,26,16,50,33.90
2021,06,26,16,51,33.90
2021,06,26,16,52,33.90
2021,06,26,16,53,33.90
2021,06,26,16,54,33.90
2021,06,26,16,55,33.90
2021,06,26,16,56,33.90
2021,06,26,16,57,33.80
2021,06,26,16,58,33.80
2021,06,26,16,59,33.70
2021,06,26,17,00,33.70
2021,06,26,17,01,33.70
2021,06,26,17,02,33.80
2021,06,26,17,03,33.90
2021,06,26,17,04,33.90
2021,06,26,17,05,33.90
2021,06,26,17,06,33.90
2021,06,26,17,07,33.90
2021,06,26,17,08,33.90
2021,06,26,17,09,33.90
2021,06,26,17,10,34.00
2021,06,26,17,11,34.10
2021,06,26,17,12,34.10
2021,06,26,17,13,34.10
2021,06,26,17,14,34.10
2021,06,26,17,15,34.10
2021,06,26,17,16,34.00
2021,06,26,17,17,33.90
2021,06,26,17,18,33.90
2021,06,26,17,19,33.90